Flag for Russia Weather past 2 weeks in Penza, Russia

Now
59 °F

Sunny.


Feels Like: 57 °F
Forecast: 35 / 54 °F
Wind: 13 mph from North

Location: Saratov / Tsentralny

Current Time: Sep 16, 2014 at 8:11:26 PM

Latest Report: Sep 16, 2014 at 7:30 PM


Visibility: 10 mi

Pressure: 30.01 "Hg

Humidity: 39%

Dew point: 34 °F

Location of PenzaLocation

Historic Weather in Penza — Graph

°F

Penza temperature yesterday

Maximum temperature yesterday: 73 °F (at 2:00 PM)
Minimum temperature yesterday: 55 °F (at 6:00 AM)
Average temperature yesterday: 63 °F

Past Weeks' High & Low Weather Summary

 TemperatureHumidityPressure
High75 °F (Sep 2, 3:00 PM)94% (Sep 5, 3:00 AM)30.30 "Hg (Sep 5, 3:00 AM)
Low48 °F (Sep 10, 7:00 AM)26% (Sep 10, 4:00 PM)29.98 "Hg (Sep 16, 4:00 PM)
Average63 °F59%30.14 "Hg
* Reported Sep 1 7:00 PM — Sep 16 7:00 PM, Penza, Weather by CustomWeather, © 2014

Note: Actual official high and low records may vary slightly from our data, if they occured in-between our weather recording intervals... More about our weather records

Advertising

Penza weather history for previous 24 hours

 ConditionsComfort  
Time TempWeatherWind HumidityBarometerVisibility
7:00 PM
Sep 16
59 °FSunny.15 mph39%30.01 "Hg10 mi
6:30 PM61 °FSunny.15 mph39%30.01 "Hg10 mi
6:00 PM61 °FSunny.17 mph39%30.01 "Hg10 mi
5:30 PM63 °FSunny.15 mph37%29.98 "Hg10 mi
5:00 PM63 °FSunny.15 mph37%29.98 "Hg10 mi
4:30 PM64 °FSunny.15 mph34%29.98 "Hg10 mi
4:00 PM64 °FSunny.15 mph34%29.98 "Hg10 mi
3:00 PM64 °FSunny.15 mph43%30.01 "Hg10 mi
2:30 PM64 °FPartly sunny.13 mph52%30.01 "HgN/A
2:00 PM64 °FPartly sunny.13 mph52%30.01 "HgN/A
1:30 PM59 °FPartly sunny.10 mph72%30.01 "HgN/A
1:00 PM59 °FBroken clouds.10 mph72%30.01 "HgN/A
12:30 PM57 °FPartly sunny.10 mph77%30.04 "HgN/A
12:00 PM57 °FPartly sunny.10 mph77%30.04 "HgN/A
11:30 AM57 °FPartly sunny.13 mph77%30.04 "HgN/A
11:00 AM57 °FPartly sunny.10 mph77%30.04 "HgN/A
10:30 AM55 °FOvercast.13 mph88%30.04 "HgN/A
10:00 AM54 °FOvercast.10 mph88%30.04 "HgN/A
9:30 AM54 °FPartly sunny.10 mph88%30.04 "HgN/A
9:00 AM54 °FBroken clouds.10 mph88%30.04 "HgN/A
8:30 AM52 °FBroken clouds.13 mph94%30.01 "HgN/A
8:00 AM52 °FBroken clouds.13 mph94%30.01 "HgN/A
7:30 AM52 °FClear.10 mph88%30.01 "Hg10 mi
7:00 AM52 °FClear.10 mph88%30.01 "Hg10 mi
6:30 AM52 °FClear.10 mph88%30.01 "Hg10 mi
6:00 AM52 °FClear.10 mph88%30.01 "Hg10 mi
5:30 AM52 °FClear.6 mph88%30.01 "Hg10 mi
5:00 AM52 °FClear.10 mph88%30.01 "Hg10 mi
4:30 AM54 °FClear.6 mph88%30.01 "Hg10 mi
4:00 AM54 °FClear.8 mph88%30.01 "Hg10 mi
3:30 AM54 °FClear.6 mph88%30.04 "Hg10 mi
3:00 AM54 °FClear.6 mph88%30.04 "Hg10 mi
2:30 AM55 °FClear.6 mph82%30.04 "Hg10 mi
2:00 AM55 °FClear.6 mph82%30.04 "Hg10 mi
1:30 AM57 °FClear.3 mph77%30.04 "Hg10 mi
1:00 AM57 °FClear.3 mph77%30.04 "Hg10 mi
12:30 AM57 °FClear.3 mph77%30.04 "Hg10 mi
12:00 AM57 °FClear.6 mph77%30.04 "Hg10 mi
11:30 PM
Sep 15
57 °FClear.6 mph77%30.07 "Hg10 mi
11:00 PM57 °FClear.8 mph77%30.07 "Hg10 mi
10:30 PM59 °FClear.8 mph72%30.07 "Hg10 mi
10:00 PM59 °FClear.8 mph72%30.07 "Hg10 mi
9:30 PM61 °FClear.10 mph63%30.07 "Hg10 mi
9:00 PM61 °FClear.6 mph63%30.07 "Hg10 mi
8:30 PM63 °FPartly cloudy.8 mph64%30.04 "HgN/A
8:00 PM63 °FBroken clouds.6 mph64%30.04 "HgN/A
Weather by CustomWeather, © 2014

See weather overviewHow to use our weather pages